DW1590 Weather Reports


time (UTC)temp
C
wind
direction
speed
KPH
gust
KPH
rain 1hr
cm
rain 24hr
cm
rain mn
cm
humidity
%
barometer
mb
20260505153005 23 184 6.4 0.0 0.00 0.00 0.00 52 1011.1
20260505151502 23 168 6.4 0.0 0.00 0.00 0.00 53 1011.2
20260505124532 18 216 8.0 0.0 0.00 0.00 0.00 61 1011.5
20260505123051 17 178 9.7 0.0 0.00 0.00 0.00 61 1011.5
20260505121530 17 187 4.8 0.0 0.00 0.00 0.00 62 1011.5
20260505120031 16 227 6.4 0.0 0.00 0.00 0.00 62 1011.4
20260505114528 16 193 4.8 0.0 0.00 0.00 0.00 61 1011.4
20260505113034 16 218 4.8 0.0 0.00 0.00 0.00 61 1011.2
20260505111539 15 207 4.8 0.0 0.00 0.00 0.00 61 1011.1
20260505101516 15 200 4.8 0.0 0.00 0.00 0.00 61 1010.5
20260505100015 15 179 3.2 0.0 0.00 0.00 0.00 62 1010.4
20260505094511 15 232 4.8 0.0 0.00 0.00 0.00 62 1010.3
20260505093011 15 188 4.8 0.0 0.00 0.00 0.00 62 1010.2
20260505091510 15 219 4.8 0.0 0.00 0.00 0.00 62 1010.2
20260505090010 16 234 6.4 0.0 0.00 0.00 0.00 63 1010.3
20260505084515 16 204 4.8 0.0 0.00 0.00 0.00 63 1010.3
20260505083013 16 200 4.8 0.0 0.00 0.00 0.00 63 1010.2
20260505081506 16 171 3.2 0.0 0.00 0.00 0.00 63 1010.3
20260505080012 16 200 4.8 0.0 0.00 0.00 0.00 62 1010.2
20260505074504 16 191 4.8 0.0 0.00 0.00 0.00 62 1010.1
20260505073003 16 182 4.8 0.0 0.00 0.00 0.00 62 1010.0
20260505071502 16 174 3.2 0.0 0.00 0.00 0.00 63 1010.1
20260505070002 16 205 3.2 0.0 0.00 0.00 0.00 63 1010.0
20260505064500 16 179 4.8 0.0 0.00 0.00 0.00 63 1009.9
20260505063100 16 207 3.2 0.0 0.00 0.00 0.00 63 1010.0
20260505061600 16 198 1.6 0.0 0.00 0.00 0.00 63 1010.0
20260505054602 16 209 1.6 0.0 0.00 0.00 0.00 62 1010.1
20260505053109 17 217 4.8 0.0 0.00 0.00 0.00 61 1010.2
20260505051553 17 202 3.2 0.0 0.00 0.00 0.00 61 1010.2
20260505041609 17 175 3.2 0.0 0.00 0.00 0.00 60 1010.0
20260505040047 17 193 3.2 0.0 0.00 0.00 0.00 59 1010.1
20260505034545 18 195 3.2 0.0 0.00 0.00 0.00 58 1010.0
20260505033039 18 196 4.8 0.0 0.00 0.00 0.00 57 1010.0
20260505031534 18 196 3.2 0.0 0.00 0.00 0.00 57 1009.9
20260505030030 18 187 3.2 0.0 0.00 0.00 0.00 56 1009.8
20260505024538 18 188 3.2 0.0 0.00 0.00 0.00 56 1009.9
20260505023021 18 199 3.2 0.0 0.00 0.00 0.00 55 1010.0
20260505021518 18 187 1.6 0.0 0.00 0.00 0.00 54 1009.8
20260505020014 18 193 1.6 0.0 0.00 0.00 0.00 54 1009.8
20260505014508 18 186 1.6 0.0 0.00 0.00 0.00 53 1009.7
20260505013013 19 165 1.6 0.0 0.00 0.00 0.00 52 1009.2
20260505011600 19 203 1.6 0.0 0.00 0.00 0.00 52 1009.3
20260505010055 20 187 0.0 0.0 0.00 0.00 0.00 51 1009.2
20260505004551 20 184 1.6 0.0 0.00 0.00 0.00 49 1009.2
20260505003046 21 196 0.0 0.0 0.00 0.00 0.00 47 1009.0
20260505001550 21 187 3.2 0.0 0.00 0.00 0.00 45 1009.1
20260505000042 21 202 3.2 0.0 0.00 0.00 0.00 45 1008.9
20260504234533 22 208 6.4 0.0 0.00 0.00 0.00 44 1009.0
20260504233029 22 167 4.8 0.0 0.00 0.00 0.00 44 1009.0
20260504231530 22 121 3.2 0.0 0.00 0.00 0.00 43 1008.9
20260504230020 22 176 6.4 0.0 0.00 0.00 0.00 42 1009.0
20260504224517 22 131 11.3 0.0 0.00 0.00 0.00 41 1009.0
20260504223011 23 200 8.0 0.0 0.00 0.00 0.00 41 1008.9
20260504221507 23 215 6.4 0.0 0.00 0.00 0.00 40 1008.7
20260504220009 23 157 8.0 0.0 0.00 0.00 0.00 40 1008.7
20260504214558 23 122 4.8 0.0 0.00 0.00 0.00 39 1008.9
20260504213054 24 167 6.4 0.0 0.00 0.00 0.00 37 1008.9
20260504211552 24 92 6.4 0.0 0.00 0.00 0.00 38 1008.9
20260504204548 23 194 8.0 0.0 0.00 0.00 0.00 39 1009.0
20260504203043 23 133 9.7 0.0 0.00 0.00 0.00 39 1009.1
20260504201532 23 241 8.0 0.0 0.00 0.00 0.00 38 1009.3
20260504200028 23 148 6.4 0.0 0.00 0.00 0.00 38 1009.6
20260504194536 23 224 6.4 0.0 0.00 0.00 0.00 40 1009.7
20260504193020 23 206 4.8 0.0 0.00 0.00 0.00 39 1010.0
20260504191514 23 110 3.2 0.0 0.00 0.00 0.00 41 1010.2
20260504190010 23 180 8.0 0.0 0.00 0.00 0.00 40 1010.5
20260504184510 22 198 6.4 0.0 0.00 0.00 0.00 41 1010.9
20260504183002 22 167 8.0 0.0 0.00 0.00 0.00 40 1011.0
20260504181603 22 92 8.0 0.0 0.00 0.00 0.00 41 1011.1
20260504180143 22 132 4.8 0.0 0.00 0.00 0.00 40 1011.3
20260504174550 22 169 6.4 0.0 0.00 0.00 0.00 40 1011.7
20260504173056 21 213 6.4 0.0 0.00 0.00 0.00 41 1011.7
20260504171540 21 244 6.4 0.0 0.00 0.00 0.00 39 1012.0